[[{"header":{"parameterUnit":"m.s-1","parameterCategory":1,"la1":30.2992,"la2":30.254,"lo1":-89.0895,"lo2":-89.0443,"dy":0.0025,"dx":0.0025,"nx":19,"ny":19,"refTime":"2026-05-20T21:00:00:Z","depth":0,"parameterNumber":2,"parameterNumberName":"U-component_of_WINDS"},"data":[0,0,0,-1.2534,-1.2537,-1.2668,-1.2669,-1.2825,-1.2827,0,0,0,0,0,0,0,0,0,0,0,-1.2487,-1.2488,-1.2534,-1.2537,-1.2668,-1.2669,-1.2825,-1.2827,0,0,0,0,0,0,0,0,0,0,0,-1.2487,-1.2488,-1.2489,-1.2538,-1.2668,-1.2669,-1.2825,-1.273,0,0,0,0,0,0,0,0,0,0,-1.2605,-1.2553,-1.2488,-1.2489,-1.2538,-1.2668,-1.2669,-1.2726,-1.2736,-1.2761,0,-1.2779,0,-1.2805,-1.2836,-1.2837,0,0,0,-1.2544,-1.2544,-1.2587,-1.2489,-1.2539,-1.2667,-1.2611,-1.2732,-1.2743,-1.2774,-1.2781,-1.2788,-1.2808,-1.2837,-1.2838,-1.2956,-1.2956,0,0,-1.2536,-1.2507,-1.2579,-1.2594,-1.2572,-1.2606,-1.2615,-1.2739,-1.2745,-1.2782,-1.2792,-1.281,-1.2838,-1.2839,-1.2955,-1.2956,0,0,0,-1.2511,-1.2501,-1.2541,-1.2587,-1.2612,-1.261,-1.262,-1.274,-1.2755,-1.2793,-1.2812,-1.2839,-1.2841,-1.2955,-1.2956,-1.2939,0,0,0,-1.2507,-1.2487,-1.2538,-1.2521,-1.2609,-1.2677,-1.2618,-1.2747,-1.2762,-1.2811,-1.2839,-1.2842,-1.2955,-1.2955,-1.2939,-1.2936,0,0,0,-1.2482,-1.2484,-1.25,-1.2519,-1.2574,-1.2676,-1.2699,-1.2751,-1.2773,-1.2837,-1.2842,-1.2955,-1.2955,-1.2939,-1.2936,-1.2959,0,0,0,-1.2446,-1.2483,-1.2499,-1.2548,-1.2573,-1.2664,-1.2698,-1.2768,-1.282,-1.284,-1.2955,-1.2956,-1.2939,-1.2936,-1.2958,-1.2972,-1.2975,0,0,-1.2477,-1.2486,-1.2517,-1.2535,-1.2616,-1.2646,-1.2725,-1.2802,-1.2836,-1.2914,-1.2918,-1.2939,-1.2936,-1.2959,-1.3001,-1.3003,0,0,0,-1.2517,-1.2539,-1.2567,-1.2615,-1.2674,-1.2725,-1.2793,-1.2822,-1.289,-1.2869,-1.2954,-1.2953,-1.2968,-1.2976,-1.2978,-1.2992,-1.2958,-1.2958,-1.2958,-1.2519,-1.2559,-1.2614,-1.267,-1.2717,-1.2787,-1.2829,-1.288,-1.2907,-1.2927,-1.295,-1.2971,-1.2979,-1.2981,-1.2996,-1.2961,-1.2961,-1.2961,-1.2961,-1.2568,-1.2606,-1.2641,-1.2707,-1.275,-1.2807,-1.2876,-1.2894,-1.2954,-1.2956,-1.2971,-1.2971,-1.2982,-1.2997,-1.296,-1.296,-1.296,-1.296,-1.296,-1.2573,-1.2599,-1.2632,-1.2707,-1.276,-1.2816,-1.2872,-1.291,-1.2946,-1.296,-1.299,-1.299,-1.2996,-1.2971,-1.2971,-1.2972,-1.2972,-1.2972,-1.2972,-1.2566,-1.2605,-1.2646,-1.2712,-1.2748,-1.2801,-1.2872,-1.2909,-1.296,-1.2984,-1.2984,-1.301,-1.2975,-1.2965,-1.2973,-1.2973,-1.2973,-1.2973,-1.2972,-1.2602,-1.26,-1.2663,-1.27,-1.2781,-1.2831,-1.2878,-1.2951,-1.2988,-1.3014,-1.3038,-1.3005,-1.3018,-1.3017,-1.3009,-1.3028,-1.3028,-1.3028,-1.3028,-1.2607,-1.2616,-1.269,-1.2746,-1.2805,-1.2854,-1.2927,-1.2983,-1.304,-1.3066,-1.3069,-1.3062,-1.3059,-1.3074,-1.3071,-1.3065,-1.3097,-1.3097,-1.3097,-1.2631,-1.2648,-1.2702,-1.2757,-1.2823,-1.288,-1.295,-1.3014,-1.3079,-1.3101,-1.3087,-1.3084,-1.3074,-1.3068,-1.309,-1.3085,-1.3074,0,0]},{"header":{"parameterUnit":"m.s-1","parameterCategory":1,"la1":30.2992,"la2":30.254,"lo1":-89.0895,"lo2":-89.0443,"dy":0.0025,"dx":0.0025,"nx":19,"ny":19,"refTime":"2026-05-20T21:00:00:Z","depth":0,"parameterNumber":3,"parameterNumberName":"V-component_of_WINDS"},"data":[0,0,0,4.2576,4.2578,4.2691,4.2691,4.2829,4.283,0,0,0,0,0,0,0,0,0,0,0,4.2542,4.2543,4.2575,4.2578,4.2691,4.2691,4.2828,4.283,0,0,0,0,0,0,0,0,0,0,0,4.2541,4.2543,4.2544,4.2579,4.269,4.2691,4.2828,4.2745,0,0,0,0,0,0,0,0,0,0,4.2636,4.2606,4.2542,4.2544,4.2579,4.269,4.2691,4.2741,4.275,4.2776,0,4.2802,0,4.2819,4.2839,4.284,0,0,0,4.2578,4.2598,4.2629,4.2544,4.258,4.269,4.264,4.2746,4.2756,4.2788,4.2804,4.2809,4.2821,4.284,4.2841,4.3001,4.3002,0,0,4.2572,4.2561,4.2622,4.2636,4.2622,4.2636,4.2643,4.2752,4.2768,4.2805,4.2813,4.2823,4.2841,4.2842,4.3,4.3001,0,0,0,4.2554,4.2557,4.2585,4.263,4.2651,4.2639,4.2648,4.2763,4.2773,4.2814,4.2825,4.2842,4.2843,4.3,4.3001,4.3031,0,0,0,4.255,4.2547,4.2583,4.2577,4.2649,4.2709,4.2656,4.2766,4.2778,4.2824,4.2842,4.2845,4.2999,4.3,4.3028,4.3047,0,0,0,4.2535,4.2545,4.2561,4.2576,4.2625,4.2708,4.2724,4.2769,4.2785,4.284,4.2845,4.2998,4.3,4.3026,4.3043,4.3087,0,0,0,4.2514,4.2585,4.2562,4.2644,4.2624,4.2726,4.2724,4.2799,4.285,4.2842,4.2999,4.3001,4.3025,4.3041,4.3084,4.3123,4.3139,0,0,4.2597,4.2594,4.2644,4.2626,4.2731,4.2709,4.2817,4.2871,4.2884,4.296,4.2964,4.3029,4.3043,4.3087,4.3224,4.3236,0,0,0,4.2666,4.2702,4.2732,4.2781,4.2826,4.2866,4.2905,4.2925,4.2991,4.2922,4.3056,4.3065,4.3091,4.311,4.312,4.3143,4.3009,4.3008,4.3008,4.2769,4.2784,4.2867,4.2895,4.2942,4.2983,4.3022,4.3055,4.3054,4.3086,4.3109,4.3191,4.3213,4.3221,4.3245,4.313,4.313,4.313,4.313,4.2893,4.2946,4.2945,4.3025,4.3039,4.3105,4.3145,4.3143,4.3205,4.3175,4.3198,4.3166,4.3234,4.3256,4.3132,4.3132,4.3132,4.3131,4.3131,4.2964,4.2992,4.3016,4.309,4.3143,4.3167,4.3228,4.3237,4.3246,4.327,4.3296,4.3295,4.3297,4.3281,4.3281,4.3282,4.3282,4.3282,4.3282,4.3028,4.3055,4.3106,4.316,4.3193,4.3237,4.3277,4.3309,4.3346,4.3348,4.3348,4.3344,4.3238,4.3212,4.3287,4.3286,4.3285,4.3285,4.3285,4.3151,4.3125,4.3204,4.3238,4.3301,4.3353,4.3365,4.3428,4.3455,4.3484,4.3475,4.3394,4.3391,4.3383,4.3362,4.3471,4.3471,4.3471,4.3471,4.3211,4.3211,4.3295,4.3347,4.3399,4.3417,4.3504,4.3535,4.3563,4.358,4.3565,4.3536,4.3528,4.353,4.3519,4.3499,4.3641,4.3641,4.3641,4.3288,4.3293,4.3367,4.3397,4.3447,4.3489,4.3571,4.3628,4.3653,4.3648,4.3594,4.3587,4.3541,4.3525,4.352,4.3503,4.3467,0,0]}]]